カタログに戻る

STARLINK-6238

運用中通信VLEO
NORAD 56428·PAYLOAD·🇺🇸 United States

打ち上げ May 4, 2023 から Cape Canaveral Space Force Station

Loading…

次のパス (今後24時間)

TLE

最新Source: CelesTrak SupGP

元期: Sep 14, 2026, 22:01 UTC

1 56428C 23061BG  26257.91784722 -.00031111  00000+0 -11265-2 0  2571
2 56428  43.0001 191.1267 0001307 260.3638 218.2836 15.27605041    13

AllMySatでSTARLINK-6238をリアルタイム追跡

Download on the App Store